User: anonymous   Login
Location: Unspecified
(0.0000°N, 0.0000°E)
Time: 11:12:40
(UTC+00:00)
Language:

STSS DEMO 2 (USA 209) - Orbit

View from above orbital plane
View from above orbital plane
View from above satellite
View from above satellite

Ground track
Ground track

The orbit data is extracted from the following two-line orbital elements,

1 35938U 09052B   15059.45955935 0.00000000  00000-0  00000-0 0    02
2 35938  57.9896 134.0818 0018652 154.1848 205.8152 12.79140785    09
Epoch (UTC): 28 February 2015 11:01:45
Eccentricity: 0.0018652
inclination: 57.9896°
perigee height: 1330 km
apogee height: 1359 km
right ascension of ascending node: 134.0818°
argument of perigee: 154.1848°
revolutions per day: 12.79140785
mean anomaly at epoch: 205.8152°
orbit number at epoch: 0

The dashed part of the orbit path shows where the satellite is in the earth's shadow,  

DLR